Time,TemperatureF,DewpointF,PressureIn,WindDirection,WindDirectionDegrees,WindSpeedMPH,WindSpeedGustMPH,Humidity,HourlyPrecipIn,Conditions,Clouds,dailyrainin,SoftwareType,DateUTC
2017-06-22 00:00:00,65.9,51.0,29.82,ESE,113,1.0,-999.0,59,0.00,,,0.00,,2017-06-22 05:00:00,
2017-06-22 00:05:00,65.9,51.0,29.81,ESE,113,1.0,-999.0,59,0.00,,,0.00,,2017-06-22 05:05:00,
2017-06-22 00:11:00,65.9,52.0,29.82,WSW,248,0.0,-999.0,61,0.00,,,0.00,,2017-06-22 05:11:00,
2017-06-22 00:17:00,65.9,52.0,29.81,East,90,0.0,-999.0,61,0.00,,,0.00,,2017-06-22 05:17:00,
2017-06-22 00:22:00,65.8,51.0,29.81,South,180,0.0,-999.0,61,0.00,,,0.00,,2017-06-22 05:22:00,
2017-06-22 00:28:00,65.8,52.0,29.82,South,180,0.0,-999.0,63,0.00,,,0.00,,2017-06-22 05:28:00,
2017-06-22 00:29:00,65.8,52.0,29.83,ESE,113,1.0,-999.0,63,0.00,,,0.00,,2017-06-22 05:29:00,
2017-06-22 00:34:00,65.9,54.0,29.82,West,270,1.0,-999.0,66,0.00,,,0.00,,2017-06-22 05:34:00,
2017-06-22 00:40:00,65.9,58.0,29.81,NE,45,0.0,-999.0,78,0.00,,,0.00,,2017-06-22 05:40:00,
2017-06-22 00:46:00,65.8,59.0,29.81,South,180,1.0,-999.0,81,0.00,,,0.00,,2017-06-22 05:46:00,
2017-06-22 00:51:00,65.5,59.0,29.81,NNE,23,0.0,-999.0,81,0.00,,,0.00,,2017-06-22 05:51:00,
2017-06-22 00:57:00,64.9,59.0,29.79,West,270,0.0,-999.0,81,0.00,,,0.00,,2017-06-22 05:57:00,
2017-06-22 01:03:00,63.9,59.0,29.80,NNE,23,1.0,-999.0,83,0.00,,,0.00,,2017-06-22 06:03:00,
2017-06-22 01:08:00,63.4,58.0,29.79,NNE,23,1.0,-999.0,85,0.00,,,0.00,,2017-06-22 06:08:00,
2017-06-22 01:14:00,63.0,59.0,29.81,ENE,68,1.0,-999.0,88,0.00,,,0.00,,2017-06-22 06:14:00,
2017-06-22 01:19:00,63.0,60.0,29.81,NW,315,2.0,-999.0,90,0.05,,,0.05,,2017-06-22 06:19:00,
2017-06-22 01:25:00,62.7,60.0,29.82,South,180,1.0,-999.0,91,0.10,,,0.10,,2017-06-22 06:25:00,
2017-06-22 01:31:00,62.7,60.0,29.82,SW,225,0.0,-999.0,91,0.14,,,0.14,,2017-06-22 06:31:00,
2017-06-22 01:36:00,63.0,60.0,29.82,West,270,2.0,-999.0,93,0.21,,,0.21,,2017-06-22 06:36:00,
2017-06-22 01:42:00,63.0,61.0,29.82,NW,315,1.0,-999.0,93,0.36,,,0.36,,2017-06-22 06:42:00,
2017-06-22 01:47:00,63.2,61.0,29.80,SE,135,1.0,-999.0,95,0.41,,,0.41,,2017-06-22 06:47:00,
2017-06-22 01:53:00,63.2,61.0,29.80,East,90,1.0,-999.0,95,0.44,,,0.44,,2017-06-22 06:53:00,
2017-06-22 01:58:00,63.2,61.0,29.79,SW,225,0.0,-999.0,95,0.45,,,0.45,,2017-06-22 06:58:00,
2017-06-22 02:04:00,63.2,61.0,29.79,East,90,2.0,-999.0,95,0.00,,,0.45,,2017-06-22 07:04:00,
2017-06-22 02:09:00,63.2,61.0,29.79,ESE,113,1.0,-999.0,95,0.00,,,0.45,,2017-06-22 07:09:00,
2017-06-22 02:15:00,63.2,61.0,29.79,East,90,1.0,-999.0,95,0.00,,,0.45,,2017-06-22 07:15:00,
2017-06-22 02:21:00,63.0,61.0,29.79,East,90,2.0,-999.0,95,0.01,,,0.46,,2017-06-22 07:21:00,
2017-06-22 02:26:00,62.7,61.0,29.78,ESE,113,2.0,-999.0,93,0.01,,,0.46,,2017-06-22 07:26:00,
2017-06-22 02:32:00,62.4,60.0,29.78,SSE,158,1.0,-999.0,91,0.01,,,0.46,,2017-06-22 07:32:00,
2017-06-22 02:37:00,61.7,59.0,29.77,East,90,2.0,-999.0,91,0.01,,,0.46,,2017-06-22 07:37:00,
2017-06-22 02:43:00,61.3,58.0,29.76,East,90,1.0,-999.0,91,0.01,,,0.46,,2017-06-22 07:43:00,
2017-06-22 02:48:00,61.1,58.0,29.76,NE,45,0.0,-999.0,91,0.01,,,0.46,,2017-06-22 07:48:00,
2017-06-22 02:54:00,60.7,58.0,29.75,NE,45,2.0,-999.0,91,0.01,,,0.46,,2017-06-22 07:54:00,
2017-06-22 02:59:00,60.5,57.0,29.75,ENE,68,1.0,-999.0,91,0.00,,,0.46,,2017-06-22 07:59:00,
2017-06-22 03:05:00,60.3,57.0,29.75,ENE,68,1.0,-999.0,90,0.00,,,0.46,,2017-06-22 08:05:00,
2017-06-22 03:11:00,60.2,57.0,29.75,ENE,68,1.0,-999.0,90,0.00,,,0.46,,2017-06-22 08:11:00,
2017-06-22 03:17:00,60.2,57.0,29.75,South,180,1.0,-999.0,90,0.00,,,0.46,,2017-06-22 08:17:00,
2017-06-22 03:22:00,60.2,57.0,29.74,NNE,23,1.0,-999.0,90,0.00,,,0.46,,2017-06-22 08:22:00,
2017-06-22 03:28:00,60.2,57.0,29.74,SSW,203,2.0,-999.0,91,0.00,,,0.46,,2017-06-22 08:28:00,
2017-06-22 03:33:00,60.2,57.0,29.74,SE,135,0.0,-999.0,91,0.00,,,0.46,,2017-06-22 08:33:00,
2017-06-22 03:39:00,60.2,57.0,29.74,West,270,1.0,-999.0,91,0.00,,,0.46,,2017-06-22 08:39:00,
2017-06-22 03:44:00,60.2,57.0,29.74,SE,135,1.0,-999.0,91,0.00,,,0.46,,2017-06-22 08:44:00,
2017-06-22 03:50:00,60.2,57.0,29.73,East,90,1.0,-999.0,91,0.00,,,0.46,,2017-06-22 08:50:00,
2017-06-22 03:51:00,60.2,57.0,29.73,ESE,113,1.0,-999.0,91,0.00,,,0.46,,2017-06-22 08:51:00,
2017-06-22 03:56:00,60.2,57.0,29.72,ESE,113,1.0,-999.0,91,0.00,,,0.46,,2017-06-22 08:56:00,
2017-06-22 04:02:00,60.2,57.0,29.73,ESE,113,2.0,-999.0,91,0.00,,,0.46,,2017-06-22 09:02:00,
2017-06-22 04:07:00,60.3,58.0,29.72,East,90,0.0,-999.0,91,0.00,,,0.46,,2017-06-22 09:07:00,
2017-06-22 04:13:00,60.5,57.0,29.73,SSE,158,0.0,-999.0,91,0.00,,,0.46,,2017-06-22 09:13:00,
2017-06-22 04:18:00,61.0,58.0,29.76,NW,315,3.0,-999.0,91,0.00,,,0.46,,2017-06-22 09:18:00,
2017-06-22 04:24:00,61.1,58.0,29.81,WNW,293,2.0,-999.0,91,0.07,,,0.53,,2017-06-22 09:24:00,
2017-06-22 04:29:00,61.0,58.0,29.77,East,90,1.0,-999.0,93,0.15,,,0.61,,2017-06-22 09:29:00,
2017-06-22 04:35:00,61.0,58.0,29.77,SSE,158,0.0,-999.0,93,0.19,,,0.65,,2017-06-22 09:35:00,
2017-06-22 04:41:00,60.7,59.0,29.76,NNW,338,1.0,-999.0,93,0.20,,,0.66,,2017-06-22 09:41:00,
2017-06-22 04:46:00,60.7,59.0,29.76,ESE,113,1.0,-999.0,93,0.21,,,0.67,,2017-06-22 09:46:00,
2017-06-22 04:52:00,60.7,59.0,29.76,SSE,158,1.0,-999.0,93,0.21,,,0.67,,2017-06-22 09:52:00,
2017-06-22 04:57:00,60.7,59.0,29.76,NW,315,1.0,-999.0,93,0.22,,,0.68,,2017-06-22 09:57:00,
2017-06-22 05:02:00,60.5,58.0,29.77,South,180,0.0,-999.0,93,0.00,,,0.68,,2017-06-22 10:02:00,
2017-06-22 05:08:00,60.5,58.0,29.77,SSE,158,0.0,-999.0,93,0.01,,,0.69,,2017-06-22 10:08:00,
2017-06-22 05:13:00,60.5,59.0,29.77,SE,135,0.0,-999.0,95,0.01,,,0.69,,2017-06-22 10:13:00,
2017-06-22 05:19:00,60.5,59.0,29.75,NE,45,1.0,-999.0,95,0.01,,,0.69,,2017-06-22 10:19:00,
2017-06-22 05:24:00,60.7,59.0,29.76,NE,45,1.0,-999.0,96,0.01,,,0.69,,2017-06-22 10:24:00,
2017-06-22 05:30:00,61.5,60.0,29.76,West,270,1.0,-999.0,96,0.02,,,0.70,,2017-06-22 10:30:00,
2017-06-22 05:35:00,62.7,61.0,29.76,SE,135,0.0,-999.0,96,0.02,,,0.70,,2017-06-22 10:35:00,
2017-06-22 05:41:00,63.0,62.0,29.76,ESE,113,2.0,-999.0,96,0.02,,,0.70,,2017-06-22 10:41:00,
2017-06-22 05:46:00,63.6,62.0,29.75,SSW,203,1.0,-999.0,96,0.03,,,0.71,,2017-06-22 10:46:00,
2017-06-22 05:52:00,63.9,63.0,29.75,South,180,0.0,-999.0,96,0.03,,,0.71,,2017-06-22 10:52:00,
2017-06-22 05:58:00,63.9,63.0,29.74,NE,45,2.0,-999.0,96,0.03,,,0.71,,2017-06-22 10:58:00,
2017-06-22 06:03:00,64.4,63.0,29.74,ESE,113,1.0,-999.0,96,0.00,,,0.71,,2017-06-22 11:03:00,
2017-06-22 06:09:00,64.6,63.0,29.73,South,180,1.0,-999.0,96,0.00,,,0.71,,2017-06-22 11:09:00,
2017-06-22 06:14:00,64.6,63.0,29.73,SSE,158,1.0,-999.0,96,0.00,,,0.71,,2017-06-22 11:14:00,
2017-06-22 06:20:00,64.9,64.0,29.74,NW,315,1.0,-999.0,96,0.00,,,0.71,,2017-06-22 11:20:00,
2017-06-22 06:25:00,65.0,64.0,29.74,NE,45,1.0,-999.0,96,0.00,,,0.71,,2017-06-22 11:25:00,
2017-06-22 06:31:00,65.2,64.0,29.75,West,270,2.0,-999.0,96,0.00,,,0.71,,2017-06-22 11:31:00,
2017-06-22 06:36:00,65.8,64.0,29.74,WSW,248,2.0,-999.0,96,0.00,,,0.71,,2017-06-22 11:36:00,
2017-06-22 06:42:00,65.9,65.0,29.75,SSW,203,2.0,-999.0,96,0.00,,,0.71,,2017-06-22 11:42:00,
2017-06-22 06:48:00,66.4,65.0,29.75,NNE,23,1.0,-999.0,96,0.00,,,0.71,,2017-06-22 11:48:00,
2017-06-22 06:53:00,66.5,65.0,29.75,NNW,338,3.0,-999.0,96,0.00,,,0.71,,2017-06-22 11:53:00,
2017-06-22 06:59:00,66.6,65.0,29.74,NNE,23,1.0,-999.0,96,0.00,,,0.71,,2017-06-22 11:59:00,
2017-06-22 07:04:00,67.1,66.0,29.73,WSW,248,2.0,-999.0,96,0.00,,,0.71,,2017-06-22 12:04:00,
2017-06-22 07:10:00,67.6,66.0,29.74,WSW,248,1.0,-999.0,96,0.00,,,0.71,,2017-06-22 12:10:00,
2017-06-22 07:15:00,67.8,66.0,29.74,West,270,2.0,-999.0,96,0.00,,,0.71,,2017-06-22 12:15:00,
2017-06-22 07:21:00,68.1,67.0,29.74,SW,225,4.0,-999.0,96,0.00,,,0.71,,2017-06-22 12:21:00,
2017-06-22 07:26:00,68.4,66.0,29.73,SSW,203,1.0,-999.0,95,0.00,,,0.71,,2017-06-22 12:26:00,
2017-06-22 07:32:00,68.4,67.0,29.74,WNW,293,1.0,-999.0,95,0.00,,,0.71,,2017-06-22 12:32:00,
2017-06-22 07:37:00,68.6,66.0,29.73,West,270,1.0,-999.0,93,0.00,,,0.71,,2017-06-22 12:37:00,
2017-06-22 07:43:00,68.6,67.0,29.73,NE,45,2.0,-999.0,95,0.00,,,0.71,,2017-06-22 12:43:00,
2017-06-22 07:49:00,68.6,66.0,29.74,WNW,293,3.0,-999.0,93,0.00,,,0.71,,2017-06-22 12:49:00,
2017-06-22 07:54:00,68.6,66.0,29.74,NNE,23,2.0,-999.0,93,0.00,,,0.71,,2017-06-22 12:54:00,
2017-06-22 08:00:00,68.9,66.0,29.73,South,180,2.0,-999.0,93,0.00,,,0.71,,2017-06-22 13:00:00,
2017-06-22 08:05:00,68.9,66.0,29.74,West,270,1.0,-999.0,93,0.00,,,0.71,,2017-06-22 13:05:00,
2017-06-22 08:11:00,68.9,66.0,29.74,West,270,1.0,-999.0,93,0.00,,,0.71,,2017-06-22 13:11:00,
2017-06-22 08:16:00,69.0,66.0,29.74,South,180,3.0,-999.0,91,0.00,,,0.71,,2017-06-22 13:16:00,
2017-06-22 08:22:00,69.3,66.0,29.74,SSW,203,4.0,-999.0,91,0.00,,,0.71,,2017-06-22 13:22:00,
2017-06-22 08:27:00,69.3,66.0,29.75,SSW,203,1.0,-999.0,91,0.00,,,0.71,,2017-06-22 13:27:00,
2017-06-22 08:33:00,69.6,67.0,29.74,West,270,5.0,-999.0,91,0.00,,,0.71,,2017-06-22 13:33:00,
2017-06-22 08:39:00,70.0,67.0,29.75,West,270,3.0,-999.0,91,0.00,,,0.71,,2017-06-22 13:39:00,
2017-06-22 08:44:00,70.5,67.0,29.75,WSW,248,2.0,-999.0,90,0.00,,,0.71,,2017-06-22 13:44:00,
2017-06-22 08:50:00,70.9,67.0,29.74,West,270,0.0,-999.0,90,0.00,,,0.71,,2017-06-22 13:50:00,
2017-06-22 08:55:00,71.4,67.0,29.73,ESE,113,1.0,-999.0,88,0.00,,,0.71,,2017-06-22 13:55:00,
2017-06-22 09:01:00,71.5,68.0,29.73,West,270,2.0,-999.0,88,0.00,,,0.71,,2017-06-22 14:01:00,
2017-06-22 09:06:00,71.9,67.0,29.73,NE,45,1.0,-999.0,86,0.00,,,0.71,,2017-06-22 14:06:00,
2017-06-22 09:12:00,72.1,67.0,29.73,SSW,203,1.0,-999.0,86,0.00,,,0.71,,2017-06-22 14:12:00,
2017-06-22 09:17:00,72.5,67.0,29.73,West,270,2.0,-999.0,85,0.00,,,0.71,,2017-06-22 14:17:00,
2017-06-22 09:23:00,72.8,68.0,29.73,SSE,158,1.0,-999.0,85,0.00,,,0.71,,2017-06-22 14:23:00,
2017-06-22 09:29:00,73.1,68.0,29.74,East,90,1.0,-999.0,83,0.00,,,0.71,,2017-06-22 14:29:00,
2017-06-22 09:34:00,73.1,68.0,29.74,SSW,203,0.0,-999.0,83,0.00,,,0.71,,2017-06-22 14:34:00,
2017-06-22 09:40:00,73.5,68.0,29.74,WNW,293,1.0,-999.0,83,0.00,,,0.71,,2017-06-22 14:40:00,
2017-06-22 09:45:00,73.8,68.0,29.74,West,270,1.0,-999.0,83,0.00,,,0.71,,2017-06-22 14:45:00,
2017-06-22 09:51:00,74.0,68.0,29.73,SSW,203,0.0,-999.0,83,0.00,,,0.71,,2017-06-22 14:51:00,
2017-06-22 09:54:00,74.0,68.0,29.74,SW,225,2.0,-999.0,81,0.00,,,0.71,,2017-06-22 14:54:00,
2017-06-22 09:59:00,74.6,69.0,29.73,WNW,293,1.0,-999.0,83,0.00,,,0.71,,2017-06-22 14:59:00,
2017-06-22 10:05:00,74.8,68.0,29.74,ENE,68,1.0,-999.0,81,0.00,,,0.71,,2017-06-22 15:05:00,
2017-06-22 10:10:00,74.8,68.0,29.74,NE,45,2.0,-999.0,81,0.00,,,0.71,,2017-06-22 15:10:00,
2017-06-22 10:16:00,73.9,68.0,29.73,WSW,248,2.0,-999.0,83,0.00,,,0.71,,2017-06-22 15:16:00,
2017-06-22 10:22:00,73.9,69.0,29.74,South,180,2.0,-999.0,85,0.00,,,0.71,,2017-06-22 15:22:00,
2017-06-22 10:27:00,74.0,69.0,29.74,NE,45,1.0,-999.0,85,0.00,,,0.71,,2017-06-22 15:27:00,
2017-06-22 10:33:00,74.8,69.0,29.74,SSE,158,2.0,-999.0,83,0.00,,,0.71,,2017-06-22 15:33:00,
2017-06-22 10:38:00,75.0,69.0,29.74,North,0,1.0,-999.0,83,0.00,,,0.71,,2017-06-22 15:38:00,
2017-06-22 10:44:00,75.0,69.0,29.74,WNW,293,1.0,-999.0,81,0.00,,,0.71,,2017-06-22 15:44:00,
2017-06-22 10:49:00,74.8,68.0,29.74,NNW,338,1.0,-999.0,81,0.00,,,0.71,,2017-06-22 15:49:00,
2017-06-22 10:55:00,75.1,68.0,29.74,West,270,2.0,-999.0,81,0.00,,,0.71,,2017-06-22 15:55:00,
2017-06-22 11:00:00,75.6,69.0,29.74,West,270,1.0,-999.0,81,0.00,,,0.71,,2017-06-22 16:00:00,
2017-06-22 11:06:00,75.6,69.0,29.74,SSW,203,1.0,-999.0,80,0.00,,,0.71,,2017-06-22 16:06:00,
2017-06-22 11:11:00,75.6,68.0,29.74,SW,225,2.0,-999.0,79,0.00,,,0.71,,2017-06-22 16:11:00,
2017-06-22 11:17:00,76.3,69.0,29.74,NE,45,1.0,-999.0,79,0.00,,,0.71,,2017-06-22 16:17:00,
2017-06-22 11:23:00,76.3,69.0,29.74,WSW,248,1.0,-999.0,79,0.00,,,0.71,,2017-06-22 16:23:00,
2017-06-22 11:28:00,76.3,68.0,29.75,ESE,113,1.0,-999.0,78,0.00,,,0.71,,2017-06-22 16:28:00,
2017-06-22 11:34:00,76.8,68.0,29.75,ESE,113,1.0,-999.0,75,0.00,,,0.71,,2017-06-22 16:34:00,
2017-06-22 11:39:00,76.3,67.0,29.75,SW,225,2.0,-999.0,75,0.00,,,0.71,,2017-06-22 16:39:00,
2017-06-22 11:45:00,76.4,67.0,29.75,SSW,203,2.0,-999.0,74,0.00,,,0.71,,2017-06-22 16:45:00,
2017-06-22 11:47:00,76.5,67.0,29.75,SSW,203,2.0,-999.0,74,0.00,,,0.71,,2017-06-22 16:47:00,
2017-06-22 11:53:00,76.8,67.0,29.75,NNE,23,2.0,-999.0,71,0.00,,,0.71,,2017-06-22 16:53:00,
2017-06-22 11:58:00,76.9,67.0,29.74,ESE,113,3.0,-999.0,71,0.00,,,0.71,,2017-06-22 16:58:00,
2017-06-22 12:04:00,77.5,67.0,29.74,SW,225,2.0,-999.0,71,0.00,,,0.71,,2017-06-22 17:04:00,
2017-06-22 12:09:00,77.5,67.0,29.75,SSW,203,2.0,-999.0,70,0.00,,,0.71,,2017-06-22 17:09:00,
2017-06-22 12:15:00,77.4,66.0,29.74,WSW,248,4.0,-999.0,70,0.00,,,0.71,,2017-06-22 17:15:00,
2017-06-22 12:20:00,76.9,66.0,29.74,SW,225,2.0,-999.0,70,0.00,,,0.71,,2017-06-22 17:20:00,
2017-06-22 12:25:00,76.9,66.0,29.73,WSW,248,3.0,-999.0,70,0.00,,,0.71,,2017-06-22 17:25:00,
2017-06-22 12:31:00,76.8,67.0,29.73,SSW,203,1.0,-999.0,71,0.00,,,0.71,,2017-06-22 17:31:00,
2017-06-22 12:37:00,76.8,66.0,29.73,SW,225,3.0,-999.0,70,0.00,,,0.71,,2017-06-22 17:37:00,
2017-06-22 12:42:00,76.8,66.0,29.73,South,180,2.0,-999.0,70,0.00,,,0.71,,2017-06-22 17:42:00,
2017-06-22 12:48:00,76.8,66.0,29.73,West,270,1.0,-999.0,70,0.00,,,0.71,,2017-06-22 17:48:00,
2017-06-22 12:53:00,76.9,66.0,29.73,ENE,68,2.0,-999.0,69,0.00,,,0.71,,2017-06-22 17:53:00,
2017-06-22 12:59:00,76.8,66.0,29.73,WSW,248,4.0,-999.0,70,0.00,,,0.71,,2017-06-22 17:59:00,
2017-06-22 13:04:00,77.1,66.0,29.74,SW,225,2.0,-999.0,69,0.00,,,0.71,,2017-06-22 18:04:00,
2017-06-22 13:10:00,76.9,66.0,29.73,SW,225,4.0,-999.0,69,0.00,,,0.71,,2017-06-22 18:10:00,
2017-06-22 13:15:00,76.5,66.0,29.75,SW,225,3.0,-999.0,70,0.00,,,0.71,,2017-06-22 18:15:00,
2017-06-22 13:21:00,75.9,66.0,29.75,SSW,203,3.0,-999.0,73,0.00,,,0.71,,2017-06-22 18:21:00,
2017-06-22 13:26:00,75.5,66.0,29.75,SSW,203,3.0,-999.0,74,0.00,,,0.71,,2017-06-22 18:26:00,
2017-06-22 13:32:00,75.5,66.0,29.75,SSW,203,2.0,-999.0,74,0.00,,,0.71,,2017-06-22 18:32:00,
2017-06-22 13:37:00,75.1,66.0,29.76,ENE,68,1.0,-999.0,74,0.00,,,0.71,,2017-06-22 18:37:00,
2017-06-22 13:43:00,75.3,66.0,29.75,SSW,203,2.0,-999.0,74,0.00,,,0.71,,2017-06-22 18:43:00,
2017-06-22 13:48:00,75.6,66.0,29.76,SSE,158,8.0,-999.0,73,0.00,,,0.71,,2017-06-22 18:48:00,
2017-06-22 13:54:00,75.6,66.0,29.76,South,180,6.0,-999.0,71,0.00,,,0.71,,2017-06-22 18:54:00,
2017-06-22 13:58:00,75.9,66.0,29.75,West,270,7.0,-999.0,71,0.00,,,0.71,,2017-06-22 18:58:00,
2017-06-22 14:03:00,75.9,65.0,29.74,South,180,2.0,-999.0,70,0.00,,,0.71,,2017-06-22 19:03:00,
2017-06-22 14:09:00,75.9,65.0,29.74,SW,225,6.0,-999.0,70,0.00,,,0.71,,2017-06-22 19:09:00,
2017-06-22 14:14:00,75.6,64.0,29.74,SW,225,3.0,-999.0,69,0.00,,,0.71,,2017-06-22 19:14:00,
2017-06-22 14:20:00,75.3,66.0,29.74,South,180,2.0,-999.0,73,0.00,,,0.71,,2017-06-22 19:20:00,
2017-06-22 14:25:00,74.4,66.0,29.74,SW,225,1.0,-999.0,75,0.00,,,0.71,,2017-06-22 19:25:00,
2017-06-22 14:31:00,73.8,66.0,29.73,SSW,203,2.0,-999.0,76,0.00,,,0.71,,2017-06-22 19:31:00,
2017-06-22 14:37:00,73.4,65.0,29.74,WSW,248,2.0,-999.0,76,0.00,,,0.71,,2017-06-22 19:37:00,
2017-06-22 14:42:00,73.1,65.0,29.74,West,270,2.0,-999.0,78,0.00,,,0.71,,2017-06-22 19:42:00,
2017-06-22 14:48:00,73.0,66.0,29.74,South,180,2.0,-999.0,79,0.00,,,0.71,,2017-06-22 19:48:00,
2017-06-22 14:53:00,73.0,66.0,29.74,SSW,203,2.0,-999.0,79,0.00,,,0.71,,2017-06-22 19:53:00,
2017-06-22 14:59:00,73.0,66.0,29.74,SW,225,2.0,-999.0,79,0.00,,,0.71,,2017-06-22 19:59:00,
2017-06-22 15:04:00,73.1,66.0,29.74,West,270,1.0,-999.0,80,0.00,,,0.71,,2017-06-22 20:04:00,
2017-06-22 15:10:00,73.1,66.0,29.74,SW,225,3.0,-999.0,79,0.00,,,0.71,,2017-06-22 20:10:00,
2017-06-22 15:16:00,73.4,66.0,29.72,West,270,0.0,-999.0,79,0.00,,,0.71,,2017-06-22 20:16:00,
2017-06-22 15:22:00,73.4,65.0,29.71,SSW,203,2.0,-999.0,76,0.00,,,0.71,,2017-06-22 20:22:00,
2017-06-22 15:27:00,73.5,66.0,29.72,SW,225,2.0,-999.0,78,0.00,,,0.71,,2017-06-22 20:27:00,
2017-06-22 15:33:00,73.9,66.0,29.71,SSW,203,0.0,-999.0,76,0.00,,,0.71,,2017-06-22 20:33:00,
2017-06-22 15:38:00,73.9,66.0,29.72,South,180,1.0,-999.0,78,0.00,,,0.71,,2017-06-22 20:38:00,
2017-06-22 15:44:00,73.9,66.0,29.72,South,180,0.0,-999.0,78,0.00,,,0.71,,2017-06-22 20:44:00,